Time,TemperatureF,DewpointF,PressureIn,WindDirection,WindDirectionDegrees,WindSpeedMPH,WindSpeedGustMPH,Humidity,HourlyPrecipIn,Conditions,Clouds,dailyrainin,SoftwareType,DateUTC
2013-04-26 00:01:00,42.3,19.9,30.45,SW,225,0.0,2.0,40,0.00,,,0.00,meteohub,2013-04-26 04:01:00,
2013-04-26 00:02:00,42.3,19.9,30.45,SW,225,0.0,2.0,40,0.00,,,0.00,meteohub,2013-04-26 04:02:00,
2013-04-26 00:07:00,42.1,20.5,30.45,SW,225,0.0,2.0,41,0.00,,,0.00,meteohub,2013-04-26 04:07:00,
2013-04-26 00:13:00,41.9,20.8,30.45,SW,225,0.0,2.0,42,0.00,,,0.00,meteohub,2013-04-26 04:13:00,
2013-04-26 00:18:00,41.5,19.9,30.45,SW,225,0.0,1.0,41,0.00,,,0.00,meteohub,2013-04-26 04:18:00,
2013-04-26 00:23:00,41.4,20.3,30.45,SW,225,0.0,2.0,42,0.00,,,0.00,meteohub,2013-04-26 04:23:00,
2013-04-26 00:28:00,41.2,20.1,30.45,SW,225,0.0,2.0,42,0.00,,,0.00,meteohub,2013-04-26 04:28:00,
2013-04-26 00:33:00,41.0,19.9,30.45,SW,225,0.0,2.0,42,0.00,,,0.00,meteohub,2013-04-26 04:33:00,
2013-04-26 00:38:00,41.0,19.9,30.45,SW,225,0.0,2.0,42,0.00,,,0.00,meteohub,2013-04-26 04:38:00,
2013-04-26 00:43:00,40.8,21.0,30.45,SW,225,0.0,2.0,44,0.00,,,0.00,meteohub,2013-04-26 04:43:00,
2013-04-26 00:48:00,40.6,21.4,30.45,SW,225,0.0,0.0,45,0.00,,,0.00,meteohub,2013-04-26 04:48:00,
2013-04-26 00:53:00,40.5,21.2,30.45,SW,225,0.0,0.0,45,0.00,,,0.00,meteohub,2013-04-26 04:53:00,
2013-04-26 00:59:00,40.1,20.8,30.45,SW,225,0.0,0.0,45,0.00,,,0.00,meteohub,2013-04-26 04:59:00,
2013-04-26 01:04:00,40.1,20.8,30.45,SW,225,0.0,0.0,45,0.00,,,0.00,meteohub,2013-04-26 05:04:00,
2013-04-26 01:09:00,39.7,20.5,30.45,SW,225,0.0,0.0,45,0.00,,,0.00,meteohub,2013-04-26 05:09:00,
2013-04-26 01:14:00,39.6,20.3,30.45,SW,225,0.0,0.0,45,0.00,,,0.00,meteohub,2013-04-26 05:14:00,
2013-04-26 01:19:00,39.4,20.7,30.45,SW,225,0.0,0.0,46,0.00,,,0.00,meteohub,2013-04-26 05:19:00,
2013-04-26 01:24:00,39.2,21.0,30.45,SW,225,0.0,0.0,47,0.00,,,0.00,meteohub,2013-04-26 05:24:00,
2013-04-26 01:29:00,39.0,20.8,30.45,SW,225,0.0,0.0,47,0.00,,,0.00,meteohub,2013-04-26 05:29:00,
2013-04-26 01:34:00,38.8,20.7,30.45,SW,225,0.0,0.0,47,0.00,,,0.00,meteohub,2013-04-26 05:34:00,
2013-04-26 01:39:00,38.7,21.0,30.45,SW,225,0.0,0.0,48,0.00,,,0.00,meteohub,2013-04-26 05:39:00,
2013-04-26 01:44:00,38.5,20.8,30.45,SW,225,0.0,0.0,48,0.00,,,0.00,meteohub,2013-04-26 05:44:00,
2013-04-26 01:49:00,38.3,20.7,30.45,SW,225,0.0,0.0,48,0.00,,,0.00,meteohub,2013-04-26 05:49:00,
2013-04-26 01:55:00,38.1,20.5,30.45,SW,225,0.0,0.0,48,0.00,,,0.00,meteohub,2013-04-26 05:55:00,
2013-04-26 02:00:00,37.9,20.3,30.45,SW,225,0.0,0.0,48,0.00,,,0.00,meteohub,2013-04-26 06:00:00,
2013-04-26 02:05:00,37.9,20.3,30.45,SW,225,0.0,0.0,48,0.00,,,0.00,meteohub,2013-04-26 06:05:00,
2013-04-26 02:10:00,37.9,20.7,30.44,SW,225,0.0,0.0,49,0.00,,,0.00,meteohub,2013-04-26 06:10:00,
2013-04-26 02:15:00,37.9,20.7,30.44,SW,225,0.0,0.0,49,0.00,,,0.00,meteohub,2013-04-26 06:15:00,
2013-04-26 02:20:00,37.8,20.5,30.45,SW,225,0.0,0.0,49,0.00,,,0.00,meteohub,2013-04-26 06:20:00,
2013-04-26 02:25:00,37.6,20.3,30.45,SW,225,0.0,0.0,49,0.00,,,0.00,meteohub,2013-04-26 06:25:00,
2013-04-26 02:30:00,37.4,20.1,30.44,SW,225,0.0,0.0,49,0.00,,,0.00,meteohub,2013-04-26 06:30:00,
2013-04-26 02:35:00,37.0,19.8,30.45,SW,225,0.0,0.0,49,0.00,,,0.00,meteohub,2013-04-26 06:35:00,
2013-04-26 02:40:00,36.9,19.2,30.45,SW,225,0.0,0.0,48,0.00,,,0.00,meteohub,2013-04-26 06:40:00,
2013-04-26 02:45:00,36.7,19.6,30.44,SW,225,0.0,0.0,49,0.00,,,0.00,meteohub,2013-04-26 06:45:00,
2013-04-26 02:50:00,36.7,19.6,30.44,SW,225,0.0,0.0,49,0.00,,,0.00,meteohub,2013-04-26 06:50:00,
2013-04-26 02:55:00,36.5,19.8,30.44,SW,225,2.0,0.0,50,0.00,,,0.00,meteohub,2013-04-26 06:55:00,
2013-04-26 03:00:00,36.5,19.8,30.44,SW,225,0.0,2.0,50,0.00,,,0.00,meteohub,2013-04-26 07:00:00,
2013-04-26 03:06:00,36.5,19.8,30.44,SW,225,0.0,2.0,50,0.00,,,0.00,meteohub,2013-04-26 07:06:00,
2013-04-26 03:11:00,36.3,19.6,30.43,East,90,0.0,2.0,50,0.00,,,0.00,meteohub,2013-04-26 07:11:00,
2013-04-26 03:16:00,36.1,19.4,30.44,East,90,0.0,0.0,50,0.00,,,0.00,meteohub,2013-04-26 07:16:00,
2013-04-26 03:21:00,36.0,19.2,30.44,East,90,0.0,0.0,50,0.00,,,0.00,meteohub,2013-04-26 07:21:00,
2013-04-26 03:26:00,35.6,19.0,30.44,East,90,0.0,0.0,50,0.00,,,0.00,meteohub,2013-04-26 07:26:00,
2013-04-26 03:31:00,35.6,19.0,30.43,East,90,0.0,0.0,50,0.00,,,0.00,meteohub,2013-04-26 07:31:00,
2013-04-26 03:36:00,35.6,19.0,30.44,East,90,0.0,0.0,50,0.00,,,0.00,meteohub,2013-04-26 07:36:00,
2013-04-26 03:41:00,35.6,19.4,30.44,East,90,2.0,0.0,51,0.00,,,0.00,meteohub,2013-04-26 07:41:00,
2013-04-26 03:46:00,35.4,19.2,30.44,East,90,0.0,2.0,51,0.00,,,0.00,meteohub,2013-04-26 07:46:00,
2013-04-26 03:51:00,35.4,19.2,30.44,East,90,0.0,2.0,51,0.00,,,0.00,meteohub,2013-04-26 07:51:00,
2013-04-26 03:56:00,35.2,19.0,30.44,East,90,0.0,2.0,51,0.00,,,0.00,meteohub,2013-04-26 07:56:00,
2013-04-26 04:01:00,35.2,19.0,30.44,East,90,0.0,0.0,51,0.00,,,0.00,meteohub,2013-04-26 08:01:00,
2013-04-26 04:06:00,35.2,19.0,30.44,East,90,0.0,0.0,51,0.00,,,0.00,meteohub,2013-04-26 08:06:00,
2013-04-26 04:11:00,34.9,18.7,30.44,East,90,0.0,0.0,51,0.00,,,0.00,meteohub,2013-04-26 08:11:00,
2013-04-26 04:17:00,34.7,18.7,30.44,East,90,0.0,0.0,51,0.00,,,0.00,meteohub,2013-04-26 08:17:00,
2013-04-26 04:22:00,34.5,18.5,30.45,East,90,0.0,0.0,51,0.00,,,0.00,meteohub,2013-04-26 08:22:00,
2013-04-26 04:27:00,34.5,18.5,30.45,East,90,0.0,0.0,51,0.00,,,0.00,meteohub,2013-04-26 08:27:00,
2013-04-26 04:32:00,34.3,18.3,30.45,East,90,0.0,0.0,51,0.00,,,0.00,meteohub,2013-04-26 08:32:00,
2013-04-26 04:37:00,34.2,18.1,30.44,East,90,0.0,0.0,51,0.00,,,0.00,meteohub,2013-04-26 08:37:00,
2013-04-26 04:42:00,34.2,18.1,30.45,East,90,0.0,0.0,51,0.00,,,0.00,meteohub,2013-04-26 08:42:00,
2013-04-26 04:47:00,34.0,18.0,30.45,East,90,0.0,0.0,51,0.00,,,0.00,meteohub,2013-04-26 08:47:00,
2013-04-26 04:52:00,34.0,18.0,30.45,East,90,0.0,0.0,51,0.00,,,0.00,meteohub,2013-04-26 08:52:00,
2013-04-26 04:57:00,33.8,17.8,30.45,East,90,0.0,0.0,51,0.00,,,0.00,meteohub,2013-04-26 08:57:00,
2013-04-26 05:02:00,33.8,17.8,30.45,East,90,0.0,0.0,51,0.00,,,0.00,meteohub,2013-04-26 09:02:00,
2013-04-26 05:07:00,33.8,17.8,30.46,East,90,0.0,0.0,51,0.00,,,0.00,meteohub,2013-04-26 09:07:00,
2013-04-26 05:12:00,33.6,17.6,30.45,East,90,0.0,0.0,51,0.00,,,0.00,meteohub,2013-04-26 09:12:00,
2013-04-26 05:17:00,33.3,17.2,30.45,East,90,0.0,0.0,51,0.00,,,0.00,meteohub,2013-04-26 09:17:00,
2013-04-26 05:22:00,33.3,17.2,30.46,East,90,0.0,0.0,51,0.00,,,0.00,meteohub,2013-04-26 09:22:00,
2013-04-26 05:27:00,33.3,17.2,30.46,East,90,0.0,0.0,51,0.00,,,0.00,meteohub,2013-04-26 09:27:00,
2013-04-26 05:32:00,33.3,17.8,30.46,East,90,0.0,0.0,52,0.00,,,0.00,meteohub,2013-04-26 09:32:00,
2013-04-26 05:37:00,33.3,17.8,30.46,East,90,2.0,0.0,52,0.00,,,0.00,meteohub,2013-04-26 09:37:00,
2013-04-26 05:42:00,33.3,17.8,30.47,East,90,0.0,2.0,52,0.00,,,0.00,meteohub,2013-04-26 09:42:00,
2013-04-26 05:47:00,33.3,17.8,30.47,East,90,0.0,2.0,52,0.00,,,0.00,meteohub,2013-04-26 09:47:00,
2013-04-26 05:52:00,33.3,17.8,30.47,East,90,0.0,2.0,52,0.00,,,0.00,meteohub,2013-04-26 09:52:00,
2013-04-26 05:57:00,33.3,17.8,30.47,East,90,0.0,1.0,52,0.00,,,0.00,meteohub,2013-04-26 09:57:00,
2013-04-26 06:02:00,33.3,17.8,30.47,East,90,0.0,0.0,52,0.00,,,0.00,meteohub,2013-04-26 10:02:00,
2013-04-26 06:07:00,33.3,17.8,30.47,East,90,0.0,0.0,52,0.00,,,0.00,meteohub,2013-04-26 10:07:00,
2013-04-26 06:12:00,33.4,18.0,30.47,East,90,0.0,0.0,52,0.00,,,0.00,meteohub,2013-04-26 10:12:00,
2013-04-26 06:17:00,33.4,18.0,30.47,East,90,0.0,0.0,52,0.00,,,0.00,meteohub,2013-04-26 10:17:00,
2013-04-26 06:22:00,33.6,18.0,30.47,East,90,0.0,0.0,52,0.00,,,0.00,meteohub,2013-04-26 10:22:00,
2013-04-26 06:27:00,33.4,18.0,30.48,East,90,0.0,0.0,52,0.00,,,0.00,meteohub,2013-04-26 10:27:00,
2013-04-26 06:32:00,33.4,18.0,30.48,East,90,0.0,0.0,52,0.00,,,0.00,meteohub,2013-04-26 10:32:00,
2013-04-26 06:37:00,33.4,18.0,30.48,East,90,0.0,0.0,52,0.00,,,0.00,meteohub,2013-04-26 10:37:00,
2013-04-26 06:42:00,33.3,17.8,30.48,East,90,0.0,0.0,52,0.00,,,0.00,meteohub,2013-04-26 10:42:00,
2013-04-26 06:47:00,33.3,17.8,30.49,East,90,0.0,0.0,52,0.00,,,0.00,meteohub,2013-04-26 10:47:00,
2013-04-26 06:52:00,33.3,17.8,30.49,East,90,0.0,0.0,52,0.00,,,0.00,meteohub,2013-04-26 10:52:00,
2013-04-26 06:57:00,33.1,17.6,30.49,East,90,0.0,0.0,52,0.00,,,0.00,meteohub,2013-04-26 10:57:00,
2013-04-26 07:02:00,33.1,17.6,30.50,East,90,0.0,0.0,52,0.00,,,0.00,meteohub,2013-04-26 11:02:00,
2013-04-26 07:07:00,33.1,17.6,30.49,East,90,0.0,0.0,52,0.00,,,0.00,meteohub,2013-04-26 11:07:00,
2013-04-26 07:12:00,33.1,17.6,30.50,East,90,0.0,0.0,52,0.00,,,0.00,meteohub,2013-04-26 11:12:00,
2013-04-26 07:18:00,33.3,17.8,30.50,East,90,0.0,0.0,52,0.00,,,0.00,meteohub,2013-04-26 11:18:00,
2013-04-26 07:23:00,33.4,18.0,30.50,East,90,0.0,0.0,52,0.00,,,0.00,meteohub,2013-04-26 11:23:00,
2013-04-26 07:28:00,33.6,18.0,30.50,East,90,0.0,0.0,52,0.00,,,0.00,meteohub,2013-04-26 11:28:00,
2013-04-26 07:33:00,34.0,18.3,30.51,East,90,0.0,0.0,52,0.00,,,0.00,meteohub,2013-04-26 11:33:00,
2013-04-26 07:38:00,34.3,18.7,30.50,East,90,2.0,2.0,52,0.00,,,0.00,meteohub,2013-04-26 11:38:00,
2013-04-26 07:43:00,34.5,18.9,30.50,East,90,2.0,2.0,52,0.00,,,0.00,meteohub,2013-04-26 11:43:00,
2013-04-26 07:48:00,35.2,19.6,30.50,East,90,2.0,2.0,52,0.00,,,0.00,meteohub,2013-04-26 11:48:00,
2013-04-26 07:53:00,36.3,21.0,30.50,East,90,2.0,2.0,53,0.00,,,0.00,meteohub,2013-04-26 11:53:00,
2013-04-26 07:58:00,36.9,21.0,30.51,East,90,0.0,2.0,52,0.00,,,0.00,meteohub,2013-04-26 11:58:00,
2013-04-26 08:03:00,37.0,21.2,30.51,East,90,2.0,2.0,52,0.00,,,0.00,meteohub,2013-04-26 12:03:00,
2013-04-26 08:09:00,38.1,21.4,30.51,East,90,2.0,2.0,50,0.00,,,0.00,meteohub,2013-04-26 12:09:00,
2013-04-26 08:14:00,38.7,21.0,30.51,East,90,2.0,2.0,48,0.00,,,0.00,meteohub,2013-04-26 12:14:00,
2013-04-26 08:19:00,39.6,21.4,30.51,East,90,2.0,2.0,47,0.00,,,0.00,meteohub,2013-04-26 12:19:00,
2013-04-26 08:24:00,41.0,21.0,30.51,East,90,2.0,2.0,44,0.00,,,0.00,meteohub,2013-04-26 12:24:00,
2013-04-26 08:29:00,41.2,20.1,30.51,East,90,2.0,2.0,42,0.00,,,0.00,meteohub,2013-04-26 12:29:00,
2013-04-26 08:34:00,41.5,20.5,30.51,East,90,2.0,2.0,42,0.00,,,0.00,meteohub,2013-04-26 12:34:00,
2013-04-26 08:39:00,42.1,20.5,30.51,East,90,3.0,3.0,41,0.00,,,0.00,meteohub,2013-04-26 12:39:00,
2013-04-26 08:44:00,42.8,20.5,30.51,East,90,2.0,3.0,40,0.00,,,0.00,meteohub,2013-04-26 12:44:00,
2013-04-26 08:49:00,44.2,21.2,30.50,East,90,2.0,3.0,39,0.00,,,0.00,meteohub,2013-04-26 12:49:00,
2013-04-26 08:54:00,45.3,18.3,30.50,East,90,2.0,3.0,33,0.00,,,0.00,meteohub,2013-04-26 12:54:00,
2013-04-26 08:59:00,46.2,17.6,30.49,East,90,3.0,3.0,31,0.00,,,0.00,meteohub,2013-04-26 12:59:00,
2013-04-26 09:05:00,46.2,17.6,30.49,East,90,2.0,3.0,31,0.00,,,0.00,meteohub,2013-04-26 13:05:00,
2013-04-26 09:10:00,46.8,18.9,30.49,East,90,2.0,3.0,32,0.00,,,0.00,meteohub,2013-04-26 13:10:00,
2013-04-26 09:15:00,47.8,20.5,30.49,East,90,1.0,3.0,33,0.00,,,0.00,meteohub,2013-04-26 13:15:00,
2013-04-26 09:20:00,48.9,20.7,30.48,East,90,2.0,3.0,32,0.00,,,0.00,meteohub,2013-04-26 13:20:00,
2013-04-26 09:25:00,49.8,20.8,30.47,East,90,2.0,2.0,31,0.00,,,0.00,meteohub,2013-04-26 13:25:00,
2013-04-26 09:30:00,51.4,22.3,30.47,East,90,1.0,3.0,31,0.00,,,0.00,meteohub,2013-04-26 13:30:00,
2013-04-26 09:35:00,52.7,21.0,30.46,East,90,3.0,4.0,28,0.00,,,0.00,meteohub,2013-04-26 13:35:00,
2013-04-26 09:40:00,54.3,14.5,30.46,East,90,2.0,4.0,20,0.00,,,0.00,meteohub,2013-04-26 13:40:00,
2013-04-26 09:45:00,56.3,1.2,30.45,NE,45,4.0,7.0,10,0.00,,,0.00,meteohub,2013-04-26 13:45:00,
2013-04-26 09:50:00,58.1,58.1,30.45,NE,45,2.0,7.0,0,0.00,,,0.00,meteohub,2013-04-26 13:50:00,
2013-04-26 09:55:00,59.7,59.7,30.45,East,90,3.0,7.0,0,0.00,,,0.00,meteohub,2013-04-26 13:55:00,
2013-04-26 10:01:00,60.4,60.4,30.45,North,0,2.0,7.0,0,0.00,,,0.00,meteohub,2013-04-26 14:01:00,
2013-04-26 10:06:00,61.5,61.5,30.45,NE,45,2.0,7.0,0,0.00,,,0.00,meteohub,2013-04-26 14:06:00,
2013-04-26 10:11:00,62.8,62.8,30.45,East,90,9.0,9.0,0,0.00,,,0.00,meteohub,2013-04-26 14:11:00,
2013-04-26 10:16:00,63.5,63.5,30.44,East,90,4.0,9.0,0,0.00,,,0.00,meteohub,2013-04-26 14:16:00,
2013-04-26 10:21:00,64.6,64.6,30.44,East,90,6.0,9.0,0,0.00,,,0.00,meteohub,2013-04-26 14:21:00,
2013-04-26 10:26:00,65.5,65.5,30.45,North,0,5.0,9.0,0,0.00,,,0.00,meteohub,2013-04-26 14:26:00,
2013-04-26 10:31:00,65.5,65.5,30.45,East,90,5.0,9.0,0,0.00,,,0.00,meteohub,2013-04-26 14:31:00,
2013-04-26 10:36:00,66.0,66.0,30.45,East,90,4.0,9.0,0,0.00,,,0.00,meteohub,2013-04-26 14:36:00,
2013-04-26 10:41:00,66.7,66.7,30.45,East,90,5.0,9.0,0,0.00,,,0.00,meteohub,2013-04-26 14:41:00,
2013-04-26 10:46:00,66.4,66.4,30.45,East,90,8.0,10.0,0,0.00,,,0.00,meteohub,2013-04-26 14:46:00,
2013-04-26 10:51:00,66.6,66.6,30.45,NE,45,8.0,10.0,0,0.00,,,0.00,meteohub,2013-04-26 14:51:00,
2013-04-26 10:56:00,66.4,66.4,30.45,NW,315,8.0,11.0,0,0.00,,,0.00,meteohub,2013-04-26 14:56:00,
2013-04-26 11:02:00,66.6,66.6,30.45,South,180,10.0,11.0,0,0.00,,,0.00,meteohub,2013-04-26 15:02:00,
2013-04-26 11:07:00,66.6,66.6,30.45,South,180,10.0,11.0,0,0.00,,,0.00,meteohub,2013-04-26 15:07:00,
2013-04-26 11:12:00,67.6,67.6,30.46,North,0,8.0,10.0,0,0.00,,,0.00,meteohub,2013-04-26 15:12:00,
2013-04-26 11:17:00,67.5,67.5,30.46,East,90,8.0,11.0,0,0.00,,,0.00,meteohub,2013-04-26 15:17:00,
2013-04-26 11:22:00,68.0,68.0,30.46,SE,135,4.0,11.0,0,0.00,,,0.00,meteohub,2013-04-26 15:22:00,
2013-04-26 11:27:00,69.1,69.1,30.45,North,0,5.0,11.0,0,0.00,,,0.00,meteohub,2013-04-26 15:27:00,
2013-04-26 11:32:00,69.3,69.3,30.45,East,90,6.0,10.0,0,0.00,,,0.00,meteohub,2013-04-26 15:32:00,
2013-04-26 11:37:00,68.9,68.9,30.45,East,90,4.0,13.0,0,0.00,,,0.00,meteohub,2013-04-26 15:37:00,
2013-04-26 11:42:00,68.9,68.9,30.45,NE,45,5.0,13.0,0,0.00,,,0.00,meteohub,2013-04-26 15:42:00,
2013-04-26 11:47:00,69.8,69.8,30.46,East,90,6.0,13.0,0,0.00,,,0.00,meteohub,2013-04-26 15:47:00,
2013-04-26 11:52:00,69.4,69.4,30.46,NE,45,8.0,13.0,0,0.00,,,0.00,meteohub,2013-04-26 15:52:00,
2013-04-26 11:57:00,69.1,69.1,30.46,East,90,10.0,11.0,0,0.00,,,0.00,meteohub,2013-04-26 15:57:00,
2013-04-26 12:02:00,70.0,70.0,30.46,East,90,7.0,12.0,0,0.00,,,0.00,meteohub,2013-04-26 16:02:00,
2013-04-26 12:07:00,70.0,70.0,30.45,East,90,7.0,12.0,0,0.00,,,0.00,meteohub,2013-04-26 16:07:00,
2013-04-26 12:12:00,69.6,69.6,30.46,NE,45,7.0,10.0,0,0.00,,,0.00,meteohub,2013-04-26 16:12:00,
2013-04-26 12:17:00,69.8,69.8,30.46,NE,45,8.0,11.0,0,0.00,,,0.00,meteohub,2013-04-26 16:17:00,
2013-04-26 12:22:00,69.8,69.8,30.46,East,90,7.0,11.0,0,0.00,,,0.00,meteohub,2013-04-26 16:22:00,
2013-04-26 12:27:00,69.4,69.4,30.45,NE,45,11.0,12.0,0,0.00,,,0.00,meteohub,2013-04-26 16:27:00,
2013-04-26 12:32:00,70.2,70.2,30.45,East,90,8.0,13.0,0,0.00,,,0.00,meteohub,2013-04-26 16:32:00,
2013-04-26 12:37:00,70.2,70.2,30.45,East,90,5.0,13.0,0,0.00,,,0.00,meteohub,2013-04-26 16:37:00,
2013-04-26 12:42:00,70.5,70.5,30.45,NE,45,8.0,13.0,0,0.00,,,0.00,meteohub,2013-04-26 16:42:00,
2013-04-26 12:47:00,71.2,71.2,30.45,East,90,6.0,11.0,0,0.00,,,0.00,meteohub,2013-04-26 16:47:00,
2013-04-26 12:52:00,70.9,70.9,30.45,NE,45,6.0,9.0,0,0.00,,,0.00,meteohub,2013-04-26 16:52:00,
2013-04-26 12:57:00,70.7,70.7,30.45,East,90,8.0,10.0,0,0.00,,,0.00,meteohub,2013-04-26 16:57:00,
2013-04-26 13:02:00,70.5,70.5,30.45,South,180,13.0,14.0,0,0.00,,,0.00,meteohub,2013-04-26 17:02:00,
2013-04-26 13:07:00,70.7,70.7,30.45,SE,135,13.0,14.0,0,0.00,,,0.00,meteohub,2013-04-26 17:07:00,
2013-04-26 13:12:00,70.9,70.9,30.44,East,90,5.0,14.0,0,0.00,,,0.00,meteohub,2013-04-26 17:12:00,
2013-04-26 13:18:00,70.7,70.7,30.44,East,90,13.0,13.0,0,0.00,,,0.00,meteohub,2013-04-26 17:18:00,
2013-04-26 13:23:00,70.9,70.9,30.44,East,90,11.0,15.0,0,0.00,,,0.00,meteohub,2013-04-26 17:23:00,
2013-04-26 13:28:00,71.2,71.2,30.43,WNW,293,2.0,15.0,0,0.00,,,0.00,meteohub,2013-04-26 17:28:00,
2013-04-26 13:33:00,72.3,72.3,30.44,East,90,5.0,15.0,0,0.00,,,0.00,meteohub,2013-04-26 17:33:00,
2013-04-26 13:38:00,72.5,72.5,30.43,North,0,6.0,11.0,0,0.00,,,0.00,meteohub,2013-04-26 17:38:00,
2013-04-26 13:43:00,72.3,72.3,30.43,East,90,7.0,9.0,0,0.00,,,0.00,meteohub,2013-04-26 17:43:00,
2013-04-26 13:48:00,72.0,72.0,30.43,SE,135,3.0,9.0,0,0.00,,,0.00,meteohub,2013-04-26 17:48:00,
2013-04-26 13:53:00,72.3,72.3,30.42,East,90,4.0,11.0,0,0.00,,,0.00,meteohub,2013-04-26 17:53:00,
2013-04-26 13:58:00,73.0,73.0,30.42,NW,315,7.0,11.0,0,0.00,,,0.00,meteohub,2013-04-26 17:58:00,
2013-04-26 14:03:00,73.2,73.2,30.42,NE,45,4.0,8.0,0,0.00,,,0.00,meteohub,2013-04-26 18:03:00,
2013-04-26 14:08:00,72.7,72.7,30.42,East,90,4.0,8.0,0,0.00,,,0.00,meteohub,2013-04-26 18:08:00,
2013-04-26 14:13:00,72.1,72.1,30.41,SW,225,8.0,8.0,0,0.00,,,0.00,meteohub,2013-04-26 18:13:00,
2013-04-26 14:18:00,72.1,72.1,30.41,NE,45,4.0,18.0,0,0.00,,,0.00,meteohub,2013-04-26 18:18:00,
2013-04-26 14:24:00,72.5,72.5,30.41,East,90,7.0,18.0,0,0.00,,,0.00,meteohub,2013-04-26 18:24:00,
2013-04-26 14:29:00,72.1,72.1,30.41,East,90,7.0,18.0,0,0.00,,,0.00,meteohub,2013-04-26 18:29:00,
2013-04-26 14:34:00,72.7,72.7,30.40,East,90,5.0,13.0,0,0.00,,,0.00,meteohub,2013-04-26 18:34:00,
2013-04-26 14:39:00,72.9,72.9,30.40,East,90,7.0,13.0,0,0.00,,,0.00,meteohub,2013-04-26 18:39:00,
2013-04-26 14:44:00,72.9,72.9,30.40,NE,45,6.0,13.0,0,0.00,,,0.00,meteohub,2013-04-26 18:44:00,
2013-04-26 14:49:00,72.9,72.9,30.40,East,90,4.0,8.0,0,0.00,,,0.00,meteohub,2013-04-26 18:49:00,
2013-04-26 14:54:00,73.2,73.2,30.39,East,90,8.0,9.0,0,0.00,,,0.00,meteohub,2013-04-26 18:54:00,
2013-04-26 14:59:00,72.9,72.9,30.39,East,90,6.0,9.0,0,0.00,,,0.00,meteohub,2013-04-26 18:59:00,
2013-04-26 15:04:00,73.0,73.0,30.40,West,270,4.0,13.0,0,0.00,,,0.00,meteohub,2013-04-26 19:04:00,
2013-04-26 15:10:00,73.8,73.8,30.39,NW,315,8.0,13.0,0,0.00,,,0.00,meteohub,2013-04-26 19:10:00,
2013-04-26 15:14:00,73.8,73.8,30.39,East,90,2.0,13.0,0,0.00,,,0.00,meteohub,2013-04-26 19:14:00,
2013-04-26 15:20:00,73.8,73.8,30.39,SE,135,2.0,8.0,0,0.00,,,0.00,meteohub,2013-04-26 19:20:00,
2013-04-26 15:25:00,74.3,74.3,30.39,NE,45,4.0,8.0,0,0.00,,,0.00,meteohub,2013-04-26 19:25:00,
2013-04-26 15:30:00,74.3,74.3,30.38,North,0,2.0,8.0,0,0.00,,,0.00,meteohub,2013-04-26 19:30:00,
2013-04-26 15:35:00,73.6,73.6,30.38,East,90,7.0,8.0,0,0.00,,,0.00,meteohub,2013-04-26 19:35:00,
2013-04-26 15:40:00,73.8,73.8,30.38,North,0,10.0,10.0,0,0.00,,,0.00,meteohub,2013-04-26 19:40:00,
2013-04-26 15:45:00,73.8,73.8,30.37,North,0,8.0,10.0,0,0.00,,,0.00,meteohub,2013-04-26 19:45:00,
2013-04-26 15:50:00,74.7,74.7,30.37,SW,225,5.0,10.0,0,0.00,,,0.00,meteohub,2013-04-26 19:50:00,
2013-04-26 15:55:00,76.1,76.1,30.37,NE,45,4.0,10.0,0,0.00,,,0.00,meteohub,2013-04-26 19:55:00,
2013-04-26 16:00:00,76.3,76.3,30.36,SW,225,4.0,8.0,0,0.00,,,0.00,meteohub,2013-04-26 20:00:00,
2013-04-26 16:05:00,76.3,76.3,30.36,SW,225,4.0,7.0,0,0.00,,,0.00,meteohub,2013-04-26 20:05:00,
2013-04-26 16:10:00,75.4,75.4,30.36,East,90,8.0,8.0,0,0.00,,,0.00,meteohub,2013-04-26 20:10:00,
2013-04-26 16:16:00,74.7,74.7,30.37,East,90,7.0,8.0,0,0.00,,,0.00,meteohub,2013-04-26 20:16:00,
2013-04-26 16:21:00,74.1,74.1,30.36,NE,45,4.0,8.0,0,0.00,,,0.00,meteohub,2013-04-26 20:21:00,
2013-04-26 16:26:00,73.8,73.8,30.36,East,90,4.0,8.0,0,0.00,,,0.00,meteohub,2013-04-26 20:26:00,
2013-04-26 16:31:00,74.3,74.3,30.36,NE,45,2.0,8.0,0,0.00,,,0.00,meteohub,2013-04-26 20:31:00,
2013-04-26 16:36:00,75.4,75.4,30.35,North,0,6.0,7.0,0,0.00,,,0.00,meteohub,2013-04-26 20:36:00,
2013-04-26 16:41:00,74.5,74.5,30.35,SE,135,8.0,9.0,0,0.00,,,0.00,meteohub,2013-04-26 20:41:00,
2013-04-26 16:46:00,74.3,74.3,30.35,East,90,5.0,9.0,0,0.00,,,0.00,meteohub,2013-04-26 20:46:00,
2013-04-26 16:51:00,74.5,74.5,30.35,North,0,7.0,9.0,0,0.00,,,0.00,meteohub,2013-04-26 20:51:00,
2013-04-26 16:56:00,74.1,74.1,30.35,SE,135,5.0,8.0,0,0.00,,,0.00,meteohub,2013-04-26 20:56:00,
2013-04-26 17:01:00,74.5,74.5,30.35,East,90,2.0,8.0,0,0.00,,,0.00,meteohub,2013-04-26 21:01:00,
2013-04-26 17:06:00,74.5,74.5,30.35,East,90,2.0,8.0,0,0.00,,,0.00,meteohub,2013-04-26 21:06:00,
2013-04-26 17:11:00,75.0,75.0,30.34,East,90,4.0,5.0,0,0.00,,,0.00,meteohub,2013-04-26 21:11:00,
2013-04-26 17:17:00,75.6,75.6,30.34,NNE,23,3.0,6.0,0,0.00,,,0.00,meteohub,2013-04-26 21:17:00,
2013-04-26 17:22:00,75.6,75.6,30.34,North,0,3.0,6.0,0,0.00,,,0.00,meteohub,2013-04-26 21:22:00,
2013-04-26 17:27:00,75.9,75.9,30.34,East,90,3.0,9.0,0,0.00,,,0.00,meteohub,2013-04-26 21:27:00,
2013-04-26 17:32:00,76.6,76.6,30.33,North,0,2.0,9.0,0,0.00,,,0.00,meteohub,2013-04-26 21:32:00,
2013-04-26 17:37:00,75.9,75.9,30.33,North,0,5.0,9.0,0,0.00,,,0.00,meteohub,2013-04-26 21:37:00,
2013-04-26 17:42:00,75.9,75.9,30.34,East,90,6.0,6.0,0,0.00,,,0.00,meteohub,2013-04-26 21:42:00,
2013-04-26 17:47:00,75.7,75.7,30.33,East,90,6.0,6.0,0,0.00,,,0.00,meteohub,2013-04-26 21:47:00,
2013-04-26 17:52:00,74.8,74.8,30.33,East,90,6.0,7.0,0,0.00,,,0.00,meteohub,2013-04-26 21:52:00,
2013-04-26 17:57:00,73.8,73.8,30.34,NE,45,3.0,7.0,0,0.00,,,0.00,meteohub,2013-04-26 21:57:00,
2013-04-26 18:02:00,73.6,73.6,30.34,East,90,2.0,7.0,0,0.00,,,0.00,meteohub,2013-04-26 22:02:00,
2013-04-26 18:07:00,73.6,73.6,30.33,East,90,2.0,7.0,0,0.00,,,0.00,meteohub,2013-04-26 22:07:00,
2013-04-26 18:12:00,73.0,73.0,30.34,East,90,1.0,8.0,0,0.00,,,0.00,meteohub,2013-04-26 22:12:00,
2013-04-26 18:17:00,72.7,72.7,30.34,East,90,4.0,8.0,0,0.00,,,0.00,meteohub,2013-04-26 22:17:00,
2013-04-26 18:22:00,72.7,72.7,30.35,East,90,5.0,8.0,0,0.00,,,0.00,meteohub,2013-04-26 22:22:00,
2013-04-26 18:27:00,72.1,72.1,30.35,East,90,0.0,6.0,0,0.00,,,0.00,meteohub,2013-04-26 22:27:00,
2013-04-26 18:32:00,72.1,72.1,30.36,NE,45,2.0,6.0,0,0.00,,,0.00,meteohub,2013-04-26 22:32:00,
2013-04-26 18:37:00,72.1,72.1,30.36,East,90,2.0,6.0,0,0.00,,,0.00,meteohub,2013-04-26 22:37:00,
2013-04-26 18:42:00,72.1,72.1,30.36,North,0,0.0,4.0,0,0.00,,,0.00,meteohub,2013-04-26 22:42:00,
2013-04-26 18:47:00,72.0,72.0,30.36,NE,45,1.0,4.0,0,0.00,,,0.00,meteohub,2013-04-26 22:47:00,
2013-04-26 18:52:00,71.8,71.8,30.36,East,90,0.0,3.0,0,0.00,,,0.00,meteohub,2013-04-26 22:52:00,
2013-04-26 18:57:00,71.6,71.6,30.37,East,90,0.0,3.0,0,0.00,,,0.00,meteohub,2013-04-26 22:57:00,
2013-04-26 19:02:00,71.4,71.4,30.37,East,90,0.0,2.0,0,0.00,,,0.00,meteohub,2013-04-26 23:02:00,
2013-04-26 19:07:00,70.9,70.9,30.38,East,90,0.0,0.0,0,0.00,,,0.00,meteohub,2013-04-26 23:07:00,
2013-04-26 19:12:00,70.3,70.3,30.38,East,90,0.0,0.0,0,0.00,,,0.00,meteohub,2013-04-26 23:12:00,
2013-04-26 19:17:00,69.6,69.6,30.38,East,90,0.0,0.0,0,0.00,,,0.00,meteohub,2013-04-26 23:17:00,
2013-04-26 19:22:00,69.1,69.1,30.38,East,90,0.0,0.0,0,0.00,,,0.00,meteohub,2013-04-26 23:22:00,
2013-04-26 19:27:00,68.4,68.4,30.39,East,90,0.0,0.0,0,0.00,,,0.00,meteohub,2013-04-26 23:27:00,
2013-04-26 19:32:00,67.6,67.6,30.40,East,90,0.0,0.0,0,0.00,,,0.00,meteohub,2013-04-26 23:32:00,
2013-04-26 19:38:00,67.1,67.1,30.40,East,90,0.0,0.0,0,0.00,,,0.00,meteohub,2013-04-26 23:38:00,
2013-04-26 19:43:00,66.4,66.4,30.41,East,90,0.0,0.0,0,0.00,,,0.00,meteohub,2013-04-26 23:43:00,
2013-04-26 19:48:00,66.0,66.0,30.42,East,90,0.0,0.0,0,0.00,,,0.00,meteohub,2013-04-26 23:48:00,
2013-04-26 19:53:00,65.5,65.5,30.41,East,90,0.0,0.0,0,0.00,,,0.00,meteohub,2013-04-26 23:53:00,
2013-04-26 20:05:00,64.4,14.7,30.40,East,90,0.0,0.0,14,0.00,,,0.00,meteohub,2013-04-27 00:05:00,
2013-04-26 20:10:00,63.7,12.7,30.41,East,90,0.0,0.0,13,0.00,,,0.00,meteohub,2013-04-27 00:10:00,
2013-04-26 20:15:00,63.3,10.6,30.41,East,90,0.0,0.0,12,0.00,,,0.00,meteohub,2013-04-27 00:15:00,
2013-04-26 20:20:00,62.8,13.6,30.41,East,90,0.0,0.0,14,0.00,,,0.00,meteohub,2013-04-27 00:20:00,
2013-04-26 20:25:00,62.4,16.2,30.41,East,90,0.0,0.0,16,0.00,,,0.00,meteohub,2013-04-27 00:25:00,
2013-04-26 20:31:00,62.1,16.0,30.40,East,90,0.0,0.0,16,0.00,,,0.00,meteohub,2013-04-27 00:31:00,
2013-04-26 20:36:00,61.5,19.4,30.40,East,90,0.0,0.0,19,0.00,,,0.00,meteohub,2013-04-27 00:36:00,
2013-04-26 20:41:00,61.3,20.3,30.40,East,90,0.0,0.0,20,0.00,,,0.00,meteohub,2013-04-27 00:41:00,
2013-04-26 20:46:00,61.0,20.1,30.39,East,90,0.0,0.0,20,0.00,,,0.00,meteohub,2013-04-27 00:46:00,
2013-04-26 20:51:00,60.6,23.0,30.38,East,90,0.0,0.0,23,0.00,,,0.00,meteohub,2013-04-27 00:51:00,
2013-04-26 20:56:00,60.3,22.8,30.38,East,90,0.0,0.0,23,0.00,,,0.00,meteohub,2013-04-27 00:56:00,
2013-04-26 21:01:00,60.1,24.6,30.35,East,90,0.0,0.0,25,0.00,,,0.00,meteohub,2013-04-27 01:01:00,
2013-04-26 21:06:00,60.1,24.6,30.35,East,90,0.0,0.0,25,0.00,,,0.00,meteohub,2013-04-27 01:06:00,
2013-04-26 21:11:00,59.9,20.3,30.35,North,0,0.0,2.0,21,0.00,,,0.00,meteohub,2013-04-27 01:11:00,
2013-04-26 21:16:00,60.1,25.5,30.35,North,0,2.0,2.0,26,0.00,,,0.00,meteohub,2013-04-27 01:16:00,
2013-04-26 21:21:00,59.7,23.4,30.36,North,0,0.0,2.0,24,0.00,,,0.00,meteohub,2013-04-27 01:21:00,
2013-04-26 21:26:00,59.5,22.1,30.36,North,0,0.0,2.0,23,0.00,,,0.00,meteohub,2013-04-27 01:26:00,
2013-04-26 21:31:00,59.4,24.1,30.37,West,270,2.0,2.0,25,0.00,,,0.00,meteohub,2013-04-27 01:31:00,
2013-04-26 21:37:00,59.2,23.9,30.36,West,270,0.0,2.0,25,0.00,,,0.00,meteohub,2013-04-27 01:37:00,
2013-04-26 21:42:00,59.0,26.2,30.37,West,270,2.0,2.0,28,0.00,,,0.00,meteohub,2013-04-27 01:42:00,
2013-04-26 21:47:00,58.8,24.4,30.37,West,270,0.0,2.0,26,0.00,,,0.00,meteohub,2013-04-27 01:47:00,
2013-04-26 21:52:00,58.6,24.3,30.37,West,270,0.0,2.0,26,0.00,,,0.00,meteohub,2013-04-27 01:52:00,
2013-04-26 21:57:00,58.5,23.2,30.37,West,270,0.0,2.0,25,0.00,,,0.00,meteohub,2013-04-27 01:57:00,
2013-04-26 22:02:00,58.3,24.1,30.37,West,270,0.0,0.0,26,0.00,,,0.00,meteohub,2013-04-27 02:02:00,
2013-04-26 22:07:00,58.3,24.1,30.38,West,270,0.0,0.0,26,0.00,,,0.00,meteohub,2013-04-27 02:07:00,
2013-04-26 22:12:00,57.7,23.5,30.38,West,270,0.0,0.0,26,0.00,,,0.00,meteohub,2013-04-27 02:12:00,
2013-04-26 22:17:00,57.6,24.3,30.38,West,270,0.0,0.0,27,0.00,,,0.00,meteohub,2013-04-27 02:17:00,
2013-04-26 22:22:00,57.6,24.3,30.38,West,270,0.0,0.0,27,0.00,,,0.00,meteohub,2013-04-27 02:22:00,
2013-04-26 22:27:00,57.6,25.2,30.38,West,270,0.0,0.0,28,0.00,,,0.00,meteohub,2013-04-27 02:27:00,
2013-04-26 22:32:00,57.4,25.9,30.39,West,270,0.0,0.0,29,0.00,,,0.00,meteohub,2013-04-27 02:32:00,
2013-04-26 22:37:00,57.6,26.1,30.41,West,270,2.0,0.0,29,0.00,,,0.00,meteohub,2013-04-27 02:37:00,
2013-04-26 22:42:00,57.4,25.9,30.42,West,270,1.0,2.0,29,0.00,,,0.00,meteohub,2013-04-27 02:42:00,
2013-04-26 22:47:00,57.6,25.2,30.43,West,270,0.0,2.0,28,0.00,,,0.00,meteohub,2013-04-27 02:47:00,
2013-04-26 22:52:00,57.6,26.1,30.43,West,270,0.0,2.0,29,0.00,,,0.00,meteohub,2013-04-27 02:52:00,
2013-04-26 22:57:00,57.6,26.6,30.43,West,270,0.0,2.0,30,0.00,,,0.00,meteohub,2013-04-27 02:57:00,
2013-04-26 23:02:00,57.4,25.9,30.43,West,270,0.0,2.0,29,0.00,,,0.00,meteohub,2013-04-27 03:02:00,
2013-04-26 23:07:00,57.4,25.9,30.42,West,270,0.0,2.0,29,0.00,,,0.00,meteohub,2013-04-27 03:07:00,
2013-04-26 23:12:00,57.2,28.6,30.42,West,270,0.0,2.0,33,0.00,,,0.00,meteohub,2013-04-27 03:12:00,
2013-04-26 23:17:00,57.0,29.3,30.43,West,270,0.0,2.0,34,0.00,,,0.00,meteohub,2013-04-27 03:17:00,
2013-04-26 23:22:00,57.0,28.6,30.43,West,270,0.0,2.0,33,0.00,,,0.00,meteohub,2013-04-27 03:22:00,
2013-04-26 23:27:00,57.0,27.7,30.44,West,270,0.0,1.0,32,0.00,,,0.00,meteohub,2013-04-27 03:27:00,
2013-04-26 23:32:00,57.0,28.6,30.44,West,270,0.0,0.0,33,0.00,,,0.00,meteohub,2013-04-27 03:32:00,
2013-04-26 23:37:00,57.2,28.6,30.42,West,270,0.0,0.0,33,0.00,,,0.00,meteohub,2013-04-27 03:37:00,
2013-04-26 23:42:00,57.2,28.6,30.42,West,270,0.0,0.0,33,0.00,,,0.00,meteohub,2013-04-27 03:42:00,
2013-04-26 23:47:00,57.2,29.5,30.42,West,270,0.0,2.0,34,0.00,,,0.00,meteohub,2013-04-27 03:47:00,
2013-04-26 23:52:00,57.2,28.6,30.41,West,270,0.0,2.0,33,0.00,,,0.00,meteohub,2013-04-27 03:52:00,
2013-04-26 23:57:00,57.2,29.5,30.42,West,270,0.0,2.0,34,0.00,,,0.00,meteohub,2013-04-27 03:57:00,